Location: Domachevo
(51.7500°N, 23.6000°E)
Time: 20:03:14
(UTC+02:00)

GENESIS II - Visible Passes

Search period start: 17 January 2019 00:00
Search period end: 27 January 2019 00:00
Orbit: 489 x 542 km, 64.5° (Epoch: 17 January)

Date Brightness Start Highest point End Pass type
(mag) Time Alt. Az. Time Alt. Az. Time Alt. Az.
17 Jan 6.4 18:33:25 10° WNW 18:36:58 29° WSW 18:40:31 10° S visible
18 Jan 6.5 18:17:36 10° WNW 18:21:08 29° WSW 18:24:39 10° S visible
19 Jan 6.6 18:01:46 10° WNW 18:05:17 28° WSW 18:08:47 10° S visible
20 Jan 6.8 17:45:57 10° WNW 17:49:26 28° WSW 17:52:55 10° S visible
21 Jan 8.3 07:43:12 10° SE 07:44:22 11° ESE 07:45:32 10° E visible
21 Jan 6.9 17:30:07 10° WNW 17:33:35 27° WSW 17:37:03 10° S visible
22 Jan 8.3 07:27:14 10° SE 07:28:30 11° ESE 07:29:47 10° E visible
23 Jan 8.1 07:11:16 10° SE 07:12:39 12° ESE 07:14:03 10° E visible
24 Jan 7.9 06:55:19 10° SE 06:56:48 12° ESE 06:58:17 10° E visible
25 Jan 7.8 06:39:23 10° SE 06:40:57 12° ESE 06:42:32 10° E visible
26 Jan 7.7 06:23:26 10° SE 06:25:05 12° ESE 06:26:45 10° E visible
